Time,TemperatureF,DewpointF,PressureIn,WindDirection,WindDirectionDegrees,WindSpeedMPH,WindSpeedGustMPH,Humidity,HourlyPrecipIn,Conditions,Clouds,dailyrainin,SolarRadiationWatts/m^2,SoftwareType,DateUTC
2013-10-02 00:01:00,56.1,55.3,29.93,SSW,196,0.0,0.0,97,0.00,,,0.00,418,Wunderground v.1.15,2013-10-02 04:01:00,
2013-10-02 00:02:00,56.1,55.3,29.93,SSW,196,0.0,0.0,97,0.00,,,0.00,418,Wunderground v.1.15,2013-10-02 04:02:00,
2013-10-02 00:03:00,56.0,55.2,29.93,SSW,196,0.0,0.0,97,0.00,,,0.00,418,Wunderground v.1.15,2013-10-02 04:03:00,
2013-10-02 00:05:00,56.0,55.2,29.93,SSW,196,0.0,0.0,97,0.00,,,0.00,418,Wunderground v.1.15,2013-10-02 04:05:00,
2013-10-02 00:09:00,56.1,55.3,29.93,SSW,196,0.0,0.0,97,0.00,,,0.00,418,Wunderground v.1.15,2013-10-02 04:09:00,
2013-10-02 00:14:00,56.1,55.3,29.93,SSW,196,0.0,0.0,97,0.00,,,0.00,418,Wunderground v.1.15,2013-10-02 04:14:00,
2013-10-02 00:19:00,56.1,55.3,29.93,SSW,196,0.0,0.0,97,0.00,,,0.00,418,Wunderground v.1.15,2013-10-02 04:19:00,
2013-10-02 00:25:00,55.9,55.1,29.93,SSW,196,0.0,0.0,97,0.00,,,0.00,418,Wunderground v.1.15,2013-10-02 04:25:00,
2013-10-02 00:32:00,55.9,55.1,29.93,SSW,196,0.0,0.0,97,0.00,,,0.00,418,Wunderground v.1.15,2013-10-02 04:32:00,
2013-10-02 00:38:00,55.9,55.1,29.93,SSW,196,0.0,0.0,97,0.00,,,0.00,418,Wunderground v.1.15,2013-10-02 04:38:00,
2013-10-02 00:43:00,55.9,55.1,29.93,SSW,196,0.0,0.0,97,0.00,,,0.00,418,Wunderground v.1.15,2013-10-02 04:43:00,
2013-10-02 00:49:00,55.9,55.1,29.93,SSW,196,0.0,0.0,97,0.00,,,0.00,418,Wunderground v.1.15,2013-10-02 04:49:00,
2013-10-02 00:54:00,55.9,55.1,29.94,SSW,196,0.0,0.0,97,0.00,,,0.00,418,Wunderground v.1.15,2013-10-02 04:54:00,
2013-10-02 01:00:00,55.8,55.0,29.94,SSW,196,0.0,0.0,97,0.00,,,0.00,418,Wunderground v.1.15,2013-10-02 05:00:00,
2013-10-02 01:06:00,55.8,55.0,29.94,SSW,196,0.0,0.0,97,0.00,,,0.00,418,Wunderground v.1.15,2013-10-02 05:06:00,
2013-10-02 01:11:00,55.8,55.2,29.94,SSW,196,0.0,0.0,98,0.00,,,0.00,418,Wunderground v.1.15,2013-10-02 05:11:00,
2013-10-02 01:17:00,55.7,55.1,29.93,SSW,196,0.0,0.0,98,0.00,,,0.00,418,Wunderground v.1.15,2013-10-02 05:17:00,
2013-10-02 01:22:00,55.7,55.1,29.94,SSW,196,0.0,0.0,98,0.00,,,0.00,418,Wunderground v.1.15,2013-10-02 05:22:00,
2013-10-02 01:28:00,55.7,55.1,29.94,SSW,196,0.0,0.0,98,0.00,,,0.00,418,Wunderground v.1.15,2013-10-02 05:28:00,
2013-10-02 01:33:00,55.7,55.1,29.94,SSW,196,0.0,0.0,98,0.00,,,0.00,418,Wunderground v.1.15,2013-10-02 05:33:00,
2013-10-02 01:39:00,55.7,55.1,29.94,SSW,196,0.0,0.0,98,0.00,,,0.00,418,Wunderground v.1.15,2013-10-02 05:39:00,
2013-10-02 01:44:00,55.6,55.0,29.94,SSW,196,0.0,0.0,98,0.00,,,0.00,418,Wunderground v.1.15,2013-10-02 05:44:00,
2013-10-02 01:50:00,55.5,54.9,29.94,SSW,196,0.0,0.0,98,0.00,,,0.00,418,Wunderground v.1.15,2013-10-02 05:50:00,
2013-10-02 01:56:00,55.5,54.9,29.94,SSW,196,0.0,0.0,98,0.00,,,0.00,418,Wunderground v.1.15,2013-10-02 05:56:00,
2013-10-02 02:01:00,55.5,54.9,29.93,SSW,196,0.0,0.0,98,0.00,,,0.00,418,Wunderground v.1.15,2013-10-02 06:01:00,
2013-10-02 02:07:00,55.5,54.9,29.93,SSW,196,0.0,0.0,98,0.00,,,0.00,418,Wunderground v.1.15,2013-10-02 06:07:00,
2013-10-02 02:12:00,55.6,55.0,29.93,SSW,208,0.0,0.0,98,0.00,,,0.00,418,Wunderground v.1.15,2013-10-02 06:12:00,
2013-10-02 02:18:00,55.7,55.1,29.93,SSW,208,0.0,0.0,98,0.00,,,0.00,418,Wunderground v.1.15,2013-10-02 06:18:00,
2013-10-02 02:24:00,55.6,55.0,29.93,SSW,208,0.0,0.0,98,0.00,,,0.00,418,Wunderground v.1.15,2013-10-02 06:24:00,
2013-10-02 02:29:00,55.6,55.0,29.93,SSW,208,0.0,0.0,98,0.00,,,0.00,418,Wunderground v.1.15,2013-10-02 06:29:00,
2013-10-02 02:35:00,55.4,54.8,29.93,SSW,208,0.0,0.0,98,0.00,,,0.00,418,Wunderground v.1.15,2013-10-02 06:35:00,
2013-10-02 02:40:00,55.3,54.7,29.93,SSW,208,0.0,0.0,98,0.00,,,0.00,418,Wunderground v.1.15,2013-10-02 06:40:00,
2013-10-02 02:46:00,55.2,54.6,29.93,SSW,208,0.0,0.0,98,0.00,,,0.00,418,Wunderground v.1.15,2013-10-02 06:46:00,
2013-10-02 02:51:00,55.1,54.5,29.93,SSW,208,0.0,0.0,98,0.00,,,0.00,418,Wunderground v.1.15,2013-10-02 06:51:00,
2013-10-02 02:57:00,55.0,54.4,29.93,SSW,208,0.0,0.0,98,0.00,,,0.00,418,Wunderground v.1.15,2013-10-02 06:57:00,
2013-10-02 03:02:00,55.0,54.4,29.93,SSW,208,0.0,0.0,98,0.00,,,0.00,418,Wunderground v.1.15,2013-10-02 07:02:00,
2013-10-02 03:08:00,55.0,54.4,29.93,SSW,208,0.0,0.0,98,0.00,,,0.00,418,Wunderground v.1.15,2013-10-02 07:08:00,
2013-10-02 03:14:00,55.1,54.5,29.93,SSW,207,0.0,0.0,98,0.00,,,0.00,418,Wunderground v.1.15,2013-10-02 07:14:00,
2013-10-02 03:20:00,55.0,54.4,29.93,SSW,205,0.0,0.0,98,0.00,,,0.00,418,Wunderground v.1.15,2013-10-02 07:20:00,
2013-10-02 03:25:00,55.0,54.4,29.93,SSW,205,0.0,0.0,98,0.00,,,0.00,418,Wunderground v.1.15,2013-10-02 07:25:00,
2013-10-02 03:31:00,54.9,54.3,29.93,SSW,197,0.0,0.0,98,0.00,,,0.00,418,Wunderground v.1.15,2013-10-02 07:31:00,
2013-10-02 03:36:00,54.9,54.3,29.93,SSW,197,0.0,0.0,98,0.00,,,0.00,418,Wunderground v.1.15,2013-10-02 07:36:00,
2013-10-02 03:42:00,54.8,54.2,29.93,SSW,198,0.0,0.0,98,0.00,,,0.00,418,Wunderground v.1.15,2013-10-02 07:42:00,
2013-10-02 03:47:00,54.8,54.2,29.93,SSW,205,0.0,0.0,98,0.00,,,0.00,418,Wunderground v.1.15,2013-10-02 07:47:00,
2013-10-02 03:53:00,54.8,54.2,29.93,SSW,205,0.0,0.0,98,0.00,,,0.00,418,Wunderground v.1.15,2013-10-02 07:53:00,
2013-10-02 03:59:00,54.8,54.2,29.92,SSW,205,0.0,0.0,98,0.00,,,0.00,418,Wunderground v.1.15,2013-10-02 07:59:00,
2013-10-02 04:05:00,54.7,54.1,29.92,SSW,205,0.0,0.0,98,0.00,,,0.00,418,Wunderground v.1.15,2013-10-02 08:05:00,
2013-10-02 04:10:00,54.8,54.2,29.92,SSW,205,0.0,0.0,98,0.00,,,0.00,418,Wunderground v.1.15,2013-10-02 08:10:00,
2013-10-02 04:15:00,54.7,54.1,29.92,SSW,205,0.0,0.0,98,0.00,,,0.00,418,Wunderground v.1.15,2013-10-02 08:15:00,
2013-10-02 04:21:00,54.7,54.1,29.92,SSW,205,0.0,0.0,98,0.00,,,0.00,418,Wunderground v.1.15,2013-10-02 08:21:00,
2013-10-02 04:26:00,54.6,54.0,29.92,SSW,205,0.0,0.0,98,0.00,,,0.00,418,Wunderground v.1.15,2013-10-02 08:26:00,
2013-10-02 04:32:00,54.6,54.0,29.92,SSW,205,0.0,0.0,98,0.00,,,0.00,418,Wunderground v.1.15,2013-10-02 08:32:00,
2013-10-02 04:38:00,54.6,54.0,29.92,SSW,204,0.0,0.0,98,0.00,,,0.00,418,Wunderground v.1.15,2013-10-02 08:38:00,
2013-10-02 04:45:00,54.6,54.0,29.92,SSW,205,0.0,0.0,98,0.00,,,0.00,418,Wunderground v.1.15,2013-10-02 08:45:00,
2013-10-02 04:50:00,54.6,54.0,29.92,SSW,205,0.0,0.0,98,0.00,,,0.00,418,Wunderground v.1.15,2013-10-02 08:50:00,
2013-10-02 04:56:00,54.5,53.9,29.92,SSW,204,0.0,0.0,98,0.00,,,0.00,418,Wunderground v.1.15,2013-10-02 08:56:00,
2013-10-02 05:01:00,54.3,53.7,29.92,SSW,204,0.0,0.0,98,0.00,,,0.00,418,Wunderground v.1.15,2013-10-02 09:01:00,
2013-10-02 05:07:00,54.3,53.7,29.92,SSW,204,0.0,0.0,98,0.00,,,0.00,418,Wunderground v.1.15,2013-10-02 09:07:00,
2013-10-02 05:13:00,54.1,53.5,29.92,SSW,204,0.0,0.0,98,0.00,,,0.00,418,Wunderground v.1.15,2013-10-02 09:13:00,
2013-10-02 05:18:00,53.9,53.3,29.92,SSW,204,0.0,0.0,98,0.00,,,0.00,418,Wunderground v.1.15,2013-10-02 09:18:00,
2013-10-02 05:24:00,53.8,53.2,29.92,SSW,204,0.0,0.0,98,0.00,,,0.00,418,Wunderground v.1.15,2013-10-02 09:24:00,
2013-10-02 05:29:00,53.7,53.1,29.92,SSW,204,0.0,0.0,98,0.00,,,0.00,418,Wunderground v.1.15,2013-10-02 09:29:00,
2013-10-02 05:35:00,53.5,52.9,29.92,SSW,204,0.0,0.0,98,0.00,,,0.00,418,Wunderground v.1.15,2013-10-02 09:35:00,
2013-10-02 05:41:00,53.4,52.8,29.93,SSW,204,0.0,0.0,98,0.00,,,0.00,418,Wunderground v.1.15,2013-10-02 09:41:00,
2013-10-02 05:47:00,53.4,52.8,29.93,SSW,204,0.0,0.0,98,0.00,,,0.00,418,Wunderground v.1.15,2013-10-02 09:47:00,
2013-10-02 05:52:00,53.5,52.9,29.93,SSW,204,0.0,0.0,98,0.00,,,0.00,418,Wunderground v.1.15,2013-10-02 09:52:00,
2013-10-02 05:58:00,53.5,52.9,29.93,SSW,203,0.0,0.0,98,0.00,,,0.00,418,Wunderground v.1.15,2013-10-02 09:58:00,
2013-10-02 06:03:00,53.6,53.0,29.93,SW,219,0.0,0.0,98,0.00,,,0.00,418,Wunderground v.1.15,2013-10-02 10:03:00,
2013-10-02 06:09:00,53.6,53.0,29.93,SSW,212,0.0,0.0,98,0.00,,,0.00,418,Wunderground v.1.15,2013-10-02 10:09:00,
2013-10-02 06:14:00,53.7,53.1,29.93,SSE,164,0.0,0.0,98,0.00,,,0.00,418,Wunderground v.1.15,2013-10-02 10:14:00,
2013-10-02 06:20:00,53.7,53.1,29.93,SSE,160,0.0,0.0,98,0.00,,,0.00,418,Wunderground v.1.15,2013-10-02 10:20:00,
2013-10-02 06:25:00,53.6,53.0,29.93,South,183,0.0,0.0,98,0.00,,,0.00,418,Wunderground v.1.15,2013-10-02 10:25:00,
2013-10-02 06:31:00,53.6,53.0,29.93,South,184,0.0,0.0,98,0.00,,,0.00,418,Wunderground v.1.15,2013-10-02 10:31:00,
2013-10-02 06:37:00,53.5,52.9,29.93,South,185,0.0,0.0,98,0.00,,,0.00,418,Wunderground v.1.15,2013-10-02 10:37:00,
2013-10-02 06:42:00,53.5,52.9,29.93,South,185,0.0,0.0,98,0.00,,,0.00,418,Wunderground v.1.15,2013-10-02 10:42:00,
2013-10-02 06:48:00,53.4,52.8,29.93,South,185,0.0,0.0,98,0.00,,,0.00,418,Wunderground v.1.15,2013-10-02 10:48:00,
2013-10-02 06:54:00,53.2,52.7,29.93,South,185,0.0,0.0,98,0.00,,,0.00,418,Wunderground v.1.15,2013-10-02 10:54:00,
2013-10-02 06:59:00,53.1,52.6,29.93,South,185,0.0,0.0,98,0.00,,,0.00,418,Wunderground v.1.15,2013-10-02 10:59:00,
2013-10-02 07:04:00,53.0,52.5,29.94,South,185,0.0,0.0,98,0.00,,,0.00,418,Wunderground v.1.15,2013-10-02 11:04:00,
2013-10-02 07:10:00,52.9,52.4,29.94,South,185,0.0,0.0,98,0.00,,,0.00,418,Wunderground v.1.15,2013-10-02 11:10:00,
2013-10-02 07:15:00,52.9,52.4,29.94,South,185,0.0,0.0,98,0.00,,,0.00,418,Wunderground v.1.15,2013-10-02 11:15:00,
2013-10-02 07:21:00,52.9,52.4,29.94,South,185,0.0,0.0,98,0.00,,,0.00,418,Wunderground v.1.15,2013-10-02 11:21:00,
2013-10-02 07:26:00,52.9,52.4,29.94,South,185,0.0,0.0,98,0.00,,,0.00,418,Wunderground v.1.15,2013-10-02 11:26:00,
2013-10-02 07:32:00,53.0,52.7,29.94,South,185,0.0,0.0,99,0.00,,,0.00,418,Wunderground v.1.15,2013-10-02 11:32:00,
2013-10-02 07:37:00,53.1,52.8,29.94,South,185,0.0,0.0,99,0.00,,,0.00,418,Wunderground v.1.15,2013-10-02 11:37:00,
2013-10-02 07:43:00,53.2,52.9,29.94,South,184,0.0,0.0,99,0.00,,,0.00,418,Wunderground v.1.15,2013-10-02 11:43:00,
2013-10-02 07:49:00,53.5,53.2,29.94,South,185,0.0,0.0,99,0.00,,,0.00,418,Wunderground v.1.15,2013-10-02 11:49:00,
2013-10-02 07:54:00,53.7,53.4,29.94,South,185,0.0,0.0,99,0.00,,,0.00,418,Wunderground v.1.15,2013-10-02 11:54:00,
2013-10-02 08:00:00,54.1,53.8,29.94,South,188,0.0,0.0,99,0.00,,,0.00,418,Wunderground v.1.15,2013-10-02 12:00:00,
2013-10-02 08:06:00,54.4,54.1,29.94,South,188,0.0,0.0,99,0.00,,,0.00,418,Wunderground v.1.15,2013-10-02 12:06:00,
2013-10-02 08:11:00,54.6,54.3,29.94,South,188,0.0,0.0,99,0.00,,,0.00,418,Wunderground v.1.15,2013-10-02 12:11:00,
2013-10-02 08:17:00,54.9,54.6,29.94,South,188,0.0,0.0,99,0.00,,,0.00,418,Wunderground v.1.15,2013-10-02 12:17:00,
2013-10-02 08:22:00,55.3,55.0,29.94,South,186,0.0,0.0,99,0.00,,,0.00,418,Wunderground v.1.15,2013-10-02 12:22:00,
2013-10-02 08:28:00,55.7,55.4,29.94,South,186,0.0,0.0,99,0.00,,,0.00,418,Wunderground v.1.15,2013-10-02 12:28:00,
2013-10-02 08:34:00,56.0,55.7,29.94,South,186,0.0,0.0,99,0.00,,,0.00,418,Wunderground v.1.15,2013-10-02 12:34:00,
2013-10-02 08:39:00,56.5,56.2,29.94,South,180,0.0,0.0,99,0.00,,,0.00,418,Wunderground v.1.15,2013-10-02 12:39:00,
2013-10-02 08:45:00,57.0,56.7,29.94,South,182,0.0,0.0,99,0.00,,,0.00,418,Wunderground v.1.15,2013-10-02 12:45:00,
2013-10-02 08:50:00,57.4,57.1,29.94,South,182,0.0,0.0,99,0.00,,,0.00,418,Wunderground v.1.15,2013-10-02 12:50:00,
2013-10-02 08:56:00,57.9,57.6,29.95,SSW,203,0.0,1.0,99,0.00,,,0.00,418,Wunderground v.1.15,2013-10-02 12:56:00,
2013-10-02 09:01:00,58.4,57.8,29.95,South,169,0.0,0.0,98,0.00,,,0.00,418,Wunderground v.1.15,2013-10-02 13:01:00,
2013-10-02 09:07:00,59.2,57.8,29.95,ESE,110,0.0,2.0,95,0.00,,,0.00,418,Wunderground v.1.15,2013-10-02 13:07:00,
2013-10-02 09:13:00,60.1,58.4,29.95,SSE,155,0.0,2.0,94,0.00,,,0.00,418,Wunderground v.1.15,2013-10-02 13:13:00,
2013-10-02 09:18:00,60.7,58.4,29.95,ESE,108,1.0,2.0,92,0.00,,,0.00,418,Wunderground v.1.15,2013-10-02 13:18:00,
2013-10-02 09:24:00,61.2,58.2,29.95,SW,219,1.0,3.0,90,0.00,,,0.00,418,Wunderground v.1.15,2013-10-02 13:24:00,
2013-10-02 09:29:00,61.5,58.5,29.95,SE,139,0.0,2.0,90,0.00,,,0.00,418,Wunderground v.1.15,2013-10-02 13:29:00,
2013-10-02 09:35:00,62.0,58.4,29.95,SSE,158,1.0,3.0,88,0.00,,,0.00,418,Wunderground v.1.15,2013-10-02 13:35:00,
2013-10-02 09:41:00,62.3,58.4,29.95,ESE,115,1.0,2.0,87,0.00,,,0.00,418,Wunderground v.1.15,2013-10-02 13:41:00,
2013-10-02 09:46:00,62.8,58.5,29.95,ESE,123,1.0,2.0,86,0.00,,,0.00,418,Wunderground v.1.15,2013-10-02 13:46:00,
2013-10-02 09:52:00,63.5,58.9,29.95,ESE,108,1.0,2.0,85,0.00,,,0.00,418,Wunderground v.1.15,2013-10-02 13:52:00,
2013-10-02 09:57:00,64.1,59.2,29.95,ESE,115,0.0,2.0,84,0.00,,,0.00,418,Wunderground v.1.15,2013-10-02 13:57:00,
2013-10-02 10:03:00,64.7,59.4,29.95,SSW,205,0.0,2.0,83,0.00,,,0.00,418,Wunderground v.1.15,2013-10-02 14:03:00,
2013-10-02 10:09:00,65.3,59.3,29.95,South,174,0.0,4.0,81,0.00,,,0.00,418,Wunderground v.1.15,2013-10-02 14:09:00,
2013-10-02 10:14:00,65.7,59.4,29.95,ESE,103,1.0,4.0,80,0.00,,,0.00,418,Wunderground v.1.15,2013-10-02 14:14:00,
2013-10-02 10:20:00,66.4,60.0,29.95,SW,236,1.0,4.0,80,0.00,,,0.00,418,Wunderground v.1.15,2013-10-02 14:20:00,
2013-10-02 10:25:00,67.5,60.4,29.95,NW,321,1.0,4.0,78,0.00,,,0.00,418,Wunderground v.1.15,2013-10-02 14:25:00,
2013-10-02 10:31:00,68.3,61.2,29.95,SSE,163,1.0,4.0,78,0.00,,,0.00,418,Wunderground v.1.15,2013-10-02 14:31:00,
2013-10-02 10:36:00,69.1,61.2,29.95,SSE,157,1.0,4.0,76,0.00,,,0.00,418,Wunderground v.1.15,2013-10-02 14:36:00,
2013-10-02 10:42:00,69.7,60.3,29.95,NE,44,1.0,4.0,72,0.00,,,0.00,418,Wunderground v.1.15,2013-10-02 14:42:00,
2013-10-02 10:48:00,70.2,61.9,29.94,NE,51,1.0,4.0,75,0.00,,,0.00,418,Wunderground v.1.15,2013-10-02 14:48:00,
2013-10-02 10:53:00,70.9,61.0,29.94,SE,137,1.0,4.0,71,0.00,,,0.00,418,Wunderground v.1.15,2013-10-02 14:53:00,
2013-10-02 10:59:00,71.0,61.1,29.94,East,99,1.0,1.0,71,0.00,,,0.00,418,Wunderground v.1.15,2013-10-02 14:59:00,
2013-10-02 11:05:00,72.0,61.7,29.94,ESE,110,1.0,4.0,70,0.00,,,0.00,418,Wunderground v.1.15,2013-10-02 15:05:00,
2013-10-02 11:10:00,72.5,61.7,29.95,East,83,1.0,4.0,69,0.00,,,0.00,418,Wunderground v.1.15,2013-10-02 15:10:00,
2013-10-02 11:15:00,73.1,62.3,29.95,WSW,248,1.0,4.0,69,0.00,,,0.00,418,Wunderground v.1.15,2013-10-02 15:15:00,
2013-10-02 11:21:00,73.3,62.1,29.94,ESE,118,1.0,4.0,68,0.00,,,0.00,418,Wunderground v.1.15,2013-10-02 15:21:00,
2013-10-02 11:27:00,73.1,61.9,29.94,South,178,1.0,4.0,68,0.00,,,0.00,418,Wunderground v.1.15,2013-10-02 15:27:00,
2013-10-02 11:32:00,72.9,61.3,29.94,West,279,1.0,4.0,67,0.00,,,0.00,418,Wunderground v.1.15,2013-10-02 15:32:00,
2013-10-02 11:38:00,72.7,60.7,29.93,NE,55,2.0,4.0,66,0.00,,,0.00,418,Wunderground v.1.15,2013-10-02 15:38:00,
2013-10-02 11:44:00,72.7,61.1,29.93,SSE,163,2.0,4.0,67,0.00,,,0.00,418,Wunderground v.1.15,2013-10-02 15:44:00,
2013-10-02 11:45:00,72.7,60.7,29.93,SSE,156,2.0,4.0,66,0.00,,,0.00,418,Wunderground v.1.15,2013-10-02 15:45:00,
2013-10-02 11:50:00,72.8,61.2,29.92,East,89,1.0,4.0,67,0.00,,,0.00,418,Wunderground v.1.15,2013-10-02 15:50:00,
2013-10-02 11:56:00,72.5,60.5,29.93,SSE,165,1.0,4.0,66,0.00,,,0.00,418,Wunderground v.1.15,2013-10-02 15:56:00,
2013-10-02 12:01:00,72.5,61.3,29.93,ESE,106,1.0,4.0,68,0.00,,,0.00,418,Wunderground v.1.15,2013-10-02 16:01:00,
2013-10-02 12:07:00,72.2,60.2,29.92,SSE,155,1.0,4.0,66,0.00,,,0.00,418,Wunderground v.1.15,2013-10-02 16:07:00,
2013-10-02 12:13:00,72.1,61.4,29.92,WSW,241,1.0,3.0,69,0.00,,,0.00,418,Wunderground v.1.15,2013-10-02 16:13:00,
2013-10-02 12:19:00,72.1,60.5,29.92,WSW,241,1.0,3.0,67,0.00,,,0.00,418,Wunderground v.1.15,2013-10-02 16:19:00,
2013-10-02 12:25:00,72.3,60.3,29.92,East,84,1.0,5.0,66,0.00,,,0.00,418,Wunderground v.1.15,2013-10-02 16:25:00,
2013-10-02 12:30:00,72.4,60.8,29.92,SE,124,1.0,3.0,67,0.00,,,0.00,418,Wunderground v.1.15,2013-10-02 16:30:00,
2013-10-02 12:36:00,72.5,60.9,29.92,South,187,1.0,3.0,67,0.00,,,0.00,418,Wunderground v.1.15,2013-10-02 16:36:00,
2013-10-02 12:41:00,72.6,60.2,29.92,NNE,21,1.0,3.0,65,0.00,,,0.00,418,Wunderground v.1.15,2013-10-02 16:41:00,
2013-10-02 12:47:00,72.8,60.8,29.91,North,4,1.0,3.0,66,0.00,,,0.00,418,Wunderground v.1.15,2013-10-02 16:47:00,
2013-10-02 12:53:00,73.3,61.7,29.91,ENE,58,0.0,3.0,67,0.00,,,0.00,418,Wunderground v.1.15,2013-10-02 16:53:00,
2013-10-02 12:59:00,73.4,60.5,29.91,SSE,147,1.0,1.0,64,0.00,,,0.00,418,Wunderground v.1.15,2013-10-02 16:59:00,
2013-10-02 13:05:00,73.8,61.3,29.91,SW,219,1.0,3.0,65,0.00,,,0.00,418,Wunderground v.1.15,2013-10-02 17:05:00,
2013-10-02 13:10:00,74.6,62.1,29.91,SSE,160,0.0,3.0,65,0.00,,,0.00,418,Wunderground v.1.15,2013-10-02 17:10:00,
2013-10-02 13:16:00,75.4,61.9,29.91,NNW,333,0.0,3.0,63,0.00,,,0.00,418,Wunderground v.1.15,2013-10-02 17:16:00,
2013-10-02 13:21:00,75.6,62.6,29.91,NE,42,1.0,3.0,64,0.00,,,0.00,418,Wunderground v.1.15,2013-10-02 17:21:00,
2013-10-02 13:27:00,76.2,61.8,29.91,ESE,112,1.0,3.0,61,0.00,,,0.00,418,Wunderground v.1.15,2013-10-02 17:27:00,
2013-10-02 13:32:00,76.6,62.1,29.91,NE,52,1.0,6.0,61,0.00,,,0.00,418,Wunderground v.1.15,2013-10-02 17:32:00,
2013-10-02 13:38:00,77.0,61.6,29.91,ENE,66,1.0,6.0,59,0.00,,,0.00,418,Wunderground v.1.15,2013-10-02 17:38:00,
2013-10-02 13:44:00,77.0,63.0,29.91,SSW,193,1.0,3.0,62,0.00,,,0.00,418,Wunderground v.1.15,2013-10-02 17:44:00,
2013-10-02 13:49:00,77.4,61.5,29.91,NE,38,1.0,3.0,58,0.00,,,0.00,418,Wunderground v.1.15,2013-10-02 17:49:00,
2013-10-02 13:55:00,77.4,61.5,29.91,East,95,2.0,4.0,58,0.00,,,0.00,418,Wunderground v.1.15,2013-10-02 17:55:00,
2013-10-02 14:01:00,77.4,61.9,29.91,West,264,2.0,3.0,59,0.00,,,0.00,418,Wunderground v.1.15,2013-10-02 18:01:00,
2013-10-02 14:07:00,77.4,61.5,29.91,WNW,297,2.0,8.0,58,0.00,,,0.00,418,Wunderground v.1.15,2013-10-02 18:07:00,
2013-10-02 14:12:00,77.5,61.6,29.91,South,170,2.0,8.0,58,0.00,,,0.00,418,Wunderground v.1.15,2013-10-02 18:12:00,
2013-10-02 14:18:00,77.7,62.7,29.91,ENE,76,2.0,8.0,60,0.00,,,0.00,418,Wunderground v.1.15,2013-10-02 18:18:00,
2013-10-02 14:24:00,78.2,62.2,29.91,SSE,153,2.0,8.0,58,0.00,,,0.00,418,Wunderground v.1.15,2013-10-02 18:24:00,
2013-10-02 14:30:00,78.4,62.4,29.91,ENE,74,2.0,8.0,58,0.00,,,0.00,418,Wunderground v.1.15,2013-10-02 18:30:00,
2013-10-02 14:36:00,78.2,62.2,29.91,NE,51,2.0,8.0,58,0.00,,,0.00,418,Wunderground v.1.15,2013-10-02 18:36:00,
2013-10-02 14:42:00,78.6,62.6,29.91,NW,315,1.0,8.0,58,0.00,,,0.00,418,Wunderground v.1.15,2013-10-02 18:42:00,
2013-10-02 14:47:00,78.8,61.8,29.91,South,185,2.0,8.0,56,0.00,,,0.00,418,Wunderground v.1.15,2013-10-02 18:47:00,
2013-10-02 14:53:00,78.5,62.5,29.90,West,260,2.0,8.0,58,0.00,,,0.00,418,Wunderground v.1.15,2013-10-02 18:53:00,
2013-10-02 14:58:00,78.5,62.0,29.90,WSW,251,2.0,8.0,57,0.00,,,0.00,418,Wunderground v.1.15,2013-10-02 18:58:00,
2013-10-02 15:05:00,78.3,62.3,29.90,East,93,1.0,8.0,58,0.00,,,0.00,418,Wunderground v.1.15,2013-10-02 19:05:00,
2013-10-02 15:10:00,78.5,63.0,29.90,SSW,212,1.0,3.0,59,0.00,,,0.00,418,Wunderground v.1.15,2013-10-02 19:10:00,
2013-10-02 15:16:00,78.8,62.8,29.90,NNE,25,0.0,3.0,58,0.00,,,0.00,418,Wunderground v.1.15,2013-10-02 19:16:00,
2013-10-02 15:21:00,78.6,62.6,29.90,SW,217,1.0,3.0,58,0.00,,,0.00,418,Wunderground v.1.15,2013-10-02 19:21:00,
2013-10-02 15:27:00,78.4,62.9,29.90,East,89,1.0,3.0,59,0.00,,,0.00,418,Wunderground v.1.15,2013-10-02 19:27:00,
2013-10-02 15:33:00,78.5,63.0,29.90,South,183,1.0,3.0,59,0.00,,,0.00,418,Wunderground v.1.15,2013-10-02 19:33:00,
2013-10-02 15:38:00,78.6,63.1,29.89,ESE,120,0.0,3.0,59,0.00,,,0.00,418,Wunderground v.1.15,2013-10-02 19:38:00,
2013-10-02 15:44:00,78.4,62.9,29.90,East,99,1.0,4.0,59,0.00,,,0.00,418,Wunderground v.1.15,2013-10-02 19:44:00,
2013-10-02 15:50:00,77.8,62.8,29.90,South,169,1.0,3.0,60,0.00,,,0.00,418,Wunderground v.1.15,2013-10-02 19:50:00,
2013-10-02 15:56:00,77.2,63.2,29.90,WNW,292,2.0,3.0,62,0.00,,,0.00,418,Wunderground v.1.15,2013-10-02 19:56:00,
2013-10-02 16:01:00,76.6,64.0,29.89,NE,38,1.0,3.0,65,0.00,,,0.00,418,Wunderground v.1.15,2013-10-02 20:01:00,
2013-10-02 16:07:00,75.6,62.6,29.90,SE,131,1.0,3.0,64,0.00,,,0.00,418,Wunderground v.1.15,2013-10-02 20:07:00,
2013-10-02 16:13:00,75.5,63.3,29.90,SW,216,0.0,2.0,66,0.00,,,0.00,418,Wunderground v.1.15,2013-10-02 20:13:00,
2013-10-02 16:18:00,75.1,63.4,29.90,SSW,198,0.0,2.0,67,0.00,,,0.00,418,Wunderground v.1.15,2013-10-02 20:18:00,
2013-10-02 16:24:00,75.1,63.4,29.90,SSW,205,1.0,2.0,67,0.00,,,0.00,418,Wunderground v.1.15,2013-10-02 20:24:00,
2013-10-02 16:29:00,74.8,63.9,29.89,ENE,77,1.0,2.0,69,0.00,,,0.00,418,Wunderground v.1.15,2013-10-02 20:29:00,
2013-10-02 16:35:00,74.6,65.0,29.90,NE,43,0.0,2.0,72,0.00,,,0.00,418,Wunderground v.1.15,2013-10-02 20:35:00,
2013-10-02 16:41:00,74.0,64.4,29.90,ESE,122,0.0,2.0,72,0.00,,,0.00,418,Wunderground v.1.15,2013-10-02 20:41:00,
2013-10-02 16:46:00,73.6,64.8,29.90,ESE,122,0.0,2.0,74,0.00,,,0.00,418,Wunderground v.1.15,2013-10-02 20:46:00,
2013-10-02 16:52:00,73.2,65.2,29.89,SSE,160,0.0,2.0,76,0.00,,,0.00,418,Wunderground v.1.15,2013-10-02 20:52:00,
2013-10-02 16:57:00,72.6,63.4,29.89,WSW,238,1.0,4.0,73,0.00,,,0.00,418,Wunderground v.1.15,2013-10-02 20:57:00,
2013-10-02 17:03:00,73.2,63.6,29.89,SE,139,1.0,2.0,72,0.00,,,0.00,418,Wunderground v.1.15,2013-10-02 21:03:00,
2013-10-02 17:09:00,73.4,64.6,29.89,South,171,1.0,1.0,74,0.00,,,0.00,418,Wunderground v.1.15,2013-10-02 21:09:00,
2013-10-02 17:15:00,73.0,64.6,29.89,South,171,0.0,4.0,75,0.00,,,0.00,418,Wunderground v.1.15,2013-10-02 21:15:00,
2013-10-02 17:21:00,72.1,64.9,29.89,South,182,0.0,4.0,78,0.00,,,0.00,418,Wunderground v.1.15,2013-10-02 21:21:00,
2013-10-02 17:26:00,71.4,64.9,29.90,SE,144,0.0,4.0,80,0.00,,,0.00,418,Wunderground v.1.15,2013-10-02 21:26:00,
2013-10-02 17:32:00,71.1,65.0,29.89,SSE,163,0.0,4.0,81,0.00,,,0.00,418,Wunderground v.1.15,2013-10-02 21:32:00,
2013-10-02 17:37:00,70.8,65.0,29.90,SSE,163,0.0,4.0,82,0.00,,,0.00,418,Wunderground v.1.15,2013-10-02 21:37:00,
2013-10-02 17:43:00,70.0,64.6,29.90,South,178,0.0,4.0,83,0.00,,,0.00,418,Wunderground v.1.15,2013-10-02 21:43:00,
2013-10-02 17:48:00,69.5,63.8,29.90,SSW,198,0.0,4.0,82,0.00,,,0.00,418,Wunderground v.1.15,2013-10-02 21:48:00,
2013-10-02 17:54:00,69.5,64.1,29.90,SSW,199,0.0,4.0,83,0.00,,,0.00,418,Wunderground v.1.15,2013-10-02 21:54:00,
2013-10-02 18:00:00,69.0,64.3,29.90,SSW,199,0.0,4.0,85,0.00,,,0.00,418,Wunderground v.1.15,2013-10-02 22:00:00,
2013-10-02 18:06:00,68.4,64.4,29.90,SSW,199,0.0,4.0,87,0.00,,,0.00,418,Wunderground v.1.15,2013-10-02 22:06:00,
2013-10-02 18:11:00,67.9,63.9,29.90,SSW,199,0.0,0.0,87,0.00,,,0.00,418,Wunderground v.1.15,2013-10-02 22:11:00,
2013-10-02 18:17:00,67.4,63.7,29.90,SSW,199,0.0,0.0,88,0.00,,,0.00,418,Wunderground v.1.15,2013-10-02 22:17:00,
2013-10-02 18:22:00,67.1,63.7,29.90,SSW,199,0.0,0.0,89,0.00,,,0.00,418,Wunderground v.1.15,2013-10-02 22:22:00,
2013-10-02 18:27:00,66.9,63.6,29.91,SSW,199,0.0,0.0,89,0.00,,,0.00,418,Wunderground v.1.15,2013-10-02 22:27:00,
2013-10-02 18:33:00,66.6,63.3,29.91,SSW,199,0.0,0.0,89,0.00,,,0.00,418,Wunderground v.1.15,2013-10-02 22:33:00,
2013-10-02 18:38:00,66.4,63.4,29.91,SSW,199,0.0,0.0,90,0.00,,,0.00,418,Wunderground v.1.15,2013-10-02 22:38:00,
2013-10-02 18:44:00,66.1,63.1,29.91,SSW,199,0.0,0.0,90,0.00,,,0.00,418,Wunderground v.1.15,2013-10-02 22:44:00,
2013-10-02 18:49:00,66.0,63.0,29.91,SSW,199,0.0,0.0,90,0.00,,,0.00,418,Wunderground v.1.15,2013-10-02 22:49:00,
2013-10-02 18:55:00,65.8,62.8,29.91,SSW,199,0.0,0.0,90,0.00,,,0.00,418,Wunderground v.1.15,2013-10-02 22:55:00,
2013-10-02 19:00:00,65.6,62.6,29.91,SSW,199,0.0,0.0,90,0.00,,,0.00,418,Wunderground v.1.15,2013-10-02 23:00:00,
2013-10-02 19:06:00,65.4,62.7,29.92,SSW,199,0.0,0.0,91,0.00,,,0.00,418,Wunderground v.1.15,2013-10-02 23:06:00,
2013-10-02 19:12:00,65.1,62.4,29.92,SSW,199,0.0,0.0,91,0.00,,,0.00,418,Wunderground v.1.15,2013-10-02 23:12:00,
2013-10-02 19:18:00,65.0,62.6,29.92,SSW,199,0.0,0.0,92,0.00,,,0.00,418,Wunderground v.1.15,2013-10-02 23:18:00,
2013-10-02 19:23:00,64.9,62.5,29.92,SSW,199,0.0,0.0,92,0.00,,,0.00,418,Wunderground v.1.15,2013-10-02 23:23:00,
2013-10-02 19:29:00,64.7,62.3,29.92,SSW,199,0.0,0.0,92,0.00,,,0.00,418,Wunderground v.1.15,2013-10-02 23:29:00,
2013-10-02 19:34:00,64.6,62.2,29.93,SSW,199,0.0,0.0,92,0.00,,,0.00,418,Wunderground v.1.15,2013-10-02 23:34:00,
2013-10-02 19:40:00,64.5,62.4,29.93,SSW,199,0.0,0.0,93,0.00,,,0.00,418,Wunderground v.1.15,2013-10-02 23:40:00,
2013-10-02 19:45:00,64.5,62.4,29.93,SSW,199,0.0,0.0,93,0.00,,,0.00,418,Wunderground v.1.15,2013-10-02 23:45:00,
2013-10-02 19:51:00,64.4,62.3,29.93,SSW,199,0.0,0.0,93,0.00,,,0.00,418,Wunderground v.1.15,2013-10-02 23:51:00,
2013-10-02 19:57:00,64.5,62.4,29.93,SSW,208,0.0,1.0,93,0.00,,,0.00,418,Wunderground v.1.15,2013-10-02 23:57:00,
2013-10-02 20:02:00,64.4,62.0,29.94,SSW,208,0.0,1.0,92,0.00,,,0.00,418,Wunderground v.1.15,2013-10-03 00:02:00,
2013-10-02 20:08:00,64.4,62.0,29.94,SW,214,0.0,1.0,92,0.00,,,0.00,418,Wunderground v.1.15,2013-10-03 00:08:00,
2013-10-02 20:14:00,64.4,62.0,29.94,SW,214,0.0,1.0,92,0.00,,,0.00,418,Wunderground v.1.15,2013-10-03 00:14:00,
2013-10-02 20:19:00,64.5,61.8,29.94,West,264,0.0,1.0,91,0.00,,,0.00,418,Wunderground v.1.15,2013-10-03 00:19:00,
2013-10-02 20:25:00,65.3,62.0,29.94,SSE,151,0.0,1.0,89,0.00,,,0.00,418,Wunderground v.1.15,2013-10-03 00:25:00,
2013-10-02 20:30:00,65.2,61.2,29.94,SSE,153,0.0,1.0,87,0.00,,,0.00,418,Wunderground v.1.15,2013-10-03 00:30:00,
2013-10-02 20:36:00,65.1,61.8,29.95,East,95,0.0,1.0,89,0.00,,,0.00,418,Wunderground v.1.15,2013-10-03 00:36:00,
2013-10-02 20:42:00,65.0,61.4,29.95,ESE,116,0.0,1.0,88,0.00,,,0.00,418,Wunderground v.1.15,2013-10-03 00:42:00,
2013-10-02 20:47:00,65.1,61.8,29.95,South,170,0.0,1.0,89,0.00,,,0.00,418,Wunderground v.1.15,2013-10-03 00:47:00,
2013-10-02 20:53:00,65.3,61.7,29.95,SSW,196,0.0,1.0,88,0.00,,,0.00,418,Wunderground v.1.15,2013-10-03 00:53:00,
2013-10-02 20:58:00,65.3,61.0,29.95,SSE,164,0.0,1.0,86,0.00,,,0.00,418,Wunderground v.1.15,2013-10-03 00:58:00,
2013-10-02 21:04:00,65.4,61.4,29.95,SSW,208,0.0,1.0,87,0.00,,,0.00,418,Wunderground v.1.15,2013-10-03 01:04:00,
2013-10-02 21:10:00,65.2,60.6,29.95,SW,225,0.0,1.0,85,0.00,,,0.00,418,Wunderground v.1.15,2013-10-03 01:10:00,
2013-10-02 21:15:00,65.2,60.9,29.95,SSW,205,0.0,1.0,86,0.00,,,0.00,418,Wunderground v.1.15,2013-10-03 01:15:00,
2013-10-02 21:21:00,65.0,60.7,29.95,SE,143,0.0,1.0,86,0.00,,,0.00,418,Wunderground v.1.15,2013-10-03 01:21:00,
2013-10-02 21:26:00,64.6,60.6,29.95,SSW,202,0.0,1.0,87,0.00,,,0.00,418,Wunderground v.1.15,2013-10-03 01:26:00,
2013-10-02 21:32:00,64.7,60.1,29.95,SSW,197,0.0,1.0,85,0.00,,,0.00,418,Wunderground v.1.15,2013-10-03 01:32:00,
2013-10-02 21:38:00,64.8,60.5,29.95,South,178,0.0,1.0,86,0.00,,,0.00,418,Wunderground v.1.15,2013-10-03 01:38:00,
2013-10-02 21:43:00,64.3,60.3,29.96,South,177,0.0,1.0,87,0.00,,,0.00,418,Wunderground v.1.15,2013-10-03 01:43:00,
2013-10-02 21:49:00,63.8,59.9,29.96,East,93,0.0,1.0,87,0.00,,,0.00,418,Wunderground v.1.15,2013-10-03 01:49:00,
2013-10-02 21:55:00,63.6,59.7,29.96,SE,129,0.0,1.0,87,0.00,,,0.00,418,Wunderground v.1.15,2013-10-03 01:55:00,
2013-10-02 22:01:00,63.6,60.0,29.96,South,172,0.0,1.0,88,0.00,,,0.00,418,Wunderground v.1.15,2013-10-03 02:01:00,
2013-10-02 22:07:00,63.1,59.5,29.96,South,172,0.0,2.0,88,0.00,,,0.00,418,Wunderground v.1.15,2013-10-03 02:07:00,
2013-10-02 22:13:00,62.7,59.1,29.97,South,171,0.0,2.0,88,0.00,,,0.00,418,Wunderground v.1.15,2013-10-03 02:13:00,
2013-10-02 22:19:00,62.4,59.1,29.97,South,171,0.0,2.0,89,0.00,,,0.00,418,Wunderground v.1.15,2013-10-03 02:19:00,
2013-10-02 22:24:00,62.1,59.1,29.97,South,171,0.0,2.0,90,0.00,,,0.00,418,Wunderground v.1.15,2013-10-03 02:24:00,
2013-10-02 22:30:00,61.5,58.8,29.97,South,171,0.0,2.0,91,0.00,,,0.00,418,Wunderground v.1.15,2013-10-03 02:30:00,
2013-10-02 22:36:00,61.0,58.4,29.97,South,172,0.0,2.0,91,0.00,,,0.00,418,Wunderground v.1.15,2013-10-03 02:36:00,
2013-10-02 22:41:00,60.7,58.1,29.98,South,172,0.0,2.0,91,0.00,,,0.00,418,Wunderground v.1.15,2013-10-03 02:41:00,
2013-10-02 22:47:00,60.4,58.1,29.98,South,171,0.0,2.0,92,0.00,,,0.00,418,Wunderground v.1.15,2013-10-03 02:47:00,
2013-10-02 22:52:00,60.2,58.2,29.98,South,172,0.0,2.0,93,0.00,,,0.00,418,Wunderground v.1.15,2013-10-03 02:52:00,
2013-10-02 22:58:00,60.0,58.0,29.98,South,171,0.0,2.0,93,0.00,,,0.00,418,Wunderground v.1.15,2013-10-03 02:58:00,
2013-10-02 23:04:00,59.8,57.8,29.98,South,172,0.0,2.0,93,0.00,,,0.00,418,Wunderground v.1.15,2013-10-03 03:04:00,
2013-10-02 23:10:00,59.6,57.6,29.99,South,171,0.0,1.0,93,0.00,,,0.00,418,Wunderground v.1.15,2013-10-03 03:10:00,
2013-10-02 23:15:00,59.4,57.7,29.99,South,172,0.0,1.0,94,0.00,,,0.00,418,Wunderground v.1.15,2013-10-03 03:15:00,
2013-10-02 23:21:00,59.3,57.6,29.99,South,172,0.0,1.0,94,0.00,,,0.00,418,Wunderground v.1.15,2013-10-03 03:21:00,
2013-10-02 23:27:00,59.1,57.4,29.99,South,171,0.0,1.0,94,0.00,,,0.00,418,Wunderground v.1.15,2013-10-03 03:27:00,
2013-10-02 23:32:00,59.1,57.4,29.99,South,172,0.0,1.0,94,0.00,,,0.00,418,Wunderground v.1.15,2013-10-03 03:32:00,
2013-10-02 23:38:00,59.3,57.6,29.99,South,173,0.0,1.0,94,0.00,,,0.00,418,Wunderground v.1.15,2013-10-03 03:38:00,
2013-10-02 23:43:00,59.3,57.3,29.99,SSW,194,0.0,1.0,93,0.00,,,0.00,418,Wunderground v.1.15,2013-10-03 03:43:00,
2013-10-02 23:49:00,59.2,57.2,30.00,SSW,205,0.0,1.0,93,0.00,,,0.00,418,Wunderground v.1.15,2013-10-03 03:49:00,
2013-10-02 23:55:00,58.9,57.2,30.00,SSW,205,0.0,1.0,94,0.00,,,0.00,418,Wunderground v.1.15,2013-10-03 03:55:00,